Regional Weather Roundup
Issued by NWS Little Rock, AR

Home | Current Version | Previous Version | Graphics & Text | Print | Product List | Glossary On
Versions: 1 2 3 4 5 6 7 8 9 10 11 12 13 14 15 16 17 18 19 20 21 22 23 24 25 26 27 28 29 30 31
000
ASUS44 KLZK 080905
RWRLZK

WEATHER ROUNDUP FOR ARKANSAS
NATIONAL WEATHER SERVICE LITTLE ROCK AR
300 AM CST THU DEC 08 2016

NOTE: "FAIR" INDICATES FEW OR NO CLOUDS BELOW 12,000 FEET WITH NO
SIGNIFICANT WEATHER AND/OR OBSTRUCTIONS TO VISIBILITY.

ARZ001-003-010-029-081000-
NORTHWEST ARKANSAS

CITY           SKY/WX    TMP DP  RH WIND       PRES   REMARKS
FAYETTEVILLE   PTCLDY    24  16  71 N9        30.50R WCI  14
FORT SMITH     CLOUDY    32  25  75 N9        30.50R WCI  24
HARRISON       CLOUDY    25  17  72 NW12      30.46R WCI  14
BENTONVILLE    CLOUDY    25  12  58 N10       30.50R WCI  15
ROGERS         CLOUDY    23  14  68 N9G17     30.50R WCI  13
SILOAM SPGS    CLOUDY    23  16  74 N9        30.50S WCI  13
HIGHFILL       CLOUDY    23  16  74 N10       30.49R WCI  12
$$

ARZ004-005-016-081000-
NORTH CENTRAL ARKANSAS

CITY           SKY/WX    TMP DP  RH WIND       PRES   REMARKS
BATESVILLE     PTCLDY    34  23  64 NW9       30.43R WCI  26
FLIPPIN        CLOUDY    30  19  64 N9        30.44R WCI  22
MTN HOME       CLOUDY    28  22  78 N8G18     30.44R WCI  20
$$

ARZ040-041-081000-
WEST CENTRAL ARKANSAS

CITY           SKY/WX    TMP DP  RH WIND       PRES   REMARKS
MENA           PTCLDY    36  30  80 CALM      30.42R
MOUNT IDA      CLOUDY    35  29  78 VRB3      30.39R
$$

ARZ009-017-025-026-028-081000-
NORTHEAST ARKANSAS

CITY           SKY/WX    TMP DP  RH WIND       PRES   REMARKS
JONESBORO      CLOUDY    37  25  61 N7        30.40R
NEWPORT        CLOUDY    36  26  67 N15         N/A
WALNUT RIDGE   CLOUDY    36  23  60 NW16      30.40R
BLYTHEVILLE    CLOUDY    37  28  70 N9        30.39R
$$

ARZ022-023-033-042-044-081000-
CENTRAL ARKANSAS

CITY           SKY/WX    TMP DP  RH WIND       PRES   REMARKS
LITTLE ROCK    CLOUDY    38  25  59 N14       30.42R
N LITTLE ROCK    N/A     37  25  62 N8G16     30.44R
JACKSONVILLE   CLOUDY    38  25  57 N7        30.41R
SEARCY         CLOUDY    37  24  59 N10G16    30.43R
HOT SPRINGS    CLOUDY    38  26  62 N12       30.42R
RUSSELLVILLE   CLOUDY    36  26  67 NW6       30.44R
CLINTON        CLOUDY    34  27  75 NW8G16    30.43R WCI  27
$$

ARZ036-081000-
EAST ARKANSAS

CITY           SKY/WX    TMP DP  RH WIND       PRES   REMARKS
WEST MEMPHIS   CLOUDY    38  25  59 N12       30.37R
$$

ARZ050-053-066-070-073-081000-
SOUTHWEST ARKANSAS

CITY           SKY/WX    TMP DP  RH WIND       PRES   REMARKS
ARKADELPHIA    CLOUDY    39  30  70 N9        30.42R
CAMDEN         MOCLDY    37  32  81 N6        30.40S
TEXARKANA      CLOUDY    38  36  92 N9        30.40S
EL DORADO      CLOUDY    37  35  92 N10G23    30.37R
DE QUEEN       CLOUDY    39  29  67 N6        30.43R
$$

ARZ056-057-069-081000-
SOUTHEAST ARKANSAS

CITY           SKY/WX    TMP DP  RH WIND       PRES   REMARKS
PINE BLUFF     CLOUDY    40  26  57 N10       30.40R
STUTTGART      CLOUDY    39  25  56 N14       30.40R
MONTICELLO     CLOUDY    40  30  67 VRB5      30.37R

$$






USA.gov is the U.S. government's official web portal to all federal, state and local government web resources and services.